Tracking 23448 objects as of 23-Jun-2021
HD Live streaming from Space Station
objects crossing your sky now

SL-6 R/B(2)

Track SL-6 R/B(2) now!


NORAD ID: 12680
Int'l Code: 1981-071D
Perigee: 3,590.4 km
Apogee: 37,021.6 km
Inclination: 65.7 °
Period: 722.7 minutes
Semi major axis: 26676 km
RCS: 5.721 m2 (large)
Launch date: August 4, 1981
Source: Commonwealth of Independent States (former USSR) (CIS)
Launch site: PLESETSK MISSILE AND SPACE COMPLEX (PKMTR)

Note: This is a ROCKET BODY
aabbcc
Your satellite tracking list
Your tracking list is empty




NASA's NSSDC Master Catalog

Two Line Element Set (TLE):
1 12680U 81071D   21172.90327176 -.00000325  00000-0  00000-0 0  9993
2 12680  65.7326 216.6080 6265904  42.1209 352.0220  1.99249578208469
Source of the keplerian elements: AFSPC